星链-4199 (STARLINK-4199 )

导读 | 星芒AI

STARLINK-4199 是 SpaceX Starlink 卫星互联网项目中的一颗低轨道卫星,属于“星链”计划的组成部分,旨在为全球用户提供高速互联网服务。该卫星于2022年发射,运行在约550公里高的近地轨道,具备先进的通信技术和自动避障功能。作为星链星座的一部分,它与其他数千颗卫星协同工作,提升网络覆盖与连接稳定性,尤其服务于偏远和网络基础设施薄弱的地区。

基本信息
目录编号:
52857
目录名称:
STARLINK-4199
国际标识:
2022-062AD
轨道中心:
EARTH
卫星名称:
星链-4199
卫星全名:
星链-4199 (STARLINK-4199 )
卫星状态:
在轨 (已飞行1237 天)
发射日期:
2022-06-17 UTC
国别 :
美国 (US)
星等 :
--
轨道信息
数据来源 国际轨道数据 AOE轨道数据
星历时间 2025-11-04T19:41:50+0800
15小时前
查看轨道信息
2025-10-30T18:00:00+0800
5天前
查看轨道信息
半长轴 6917.906km 6917.855km
偏心率 0.0001483 0.0001902
轨道倾角 53.218° 53.209°
近地点辐角 86.336° 92.689°
升交点赤经 226.178° 248.939°
平近点角 273.780° 69.300°
近地点 538.745km 538.404km
远地点 540.797km 541.036km
周期 95.438分钟 95.437分钟
每日圈数 15.088319 15.088484
详细信息
固有亮度:
5
最大亮度:
2.5
卫星平台:
Starlink v1.5
覆盖范围:
全球
运营商:
太空探索技术公司
运营商所在国:
美国
制造商(研发单位):
太空探索技术公司
制造商所在国:
美国
使用方式:
暂无
卫星简介
星链(Starlink)计划是由太空探索技术公司(SpaceX)提出的一个巨型低轨卫星互联网星座项目,计划在2019年至2024年间在太空搭建由约1.2万颗卫星组成的“星链”网络,其中1584颗将部署在地球上空550千米处的近地轨道,并从2020年开始工作。该卫星仍在工作。
2D轨道图
3D轨道图
轨道高度分析图
轨道倾角分析图
轨道综合分析图
查看轨道综合分析图